TimeCDT,TemperatureF,Dew PointF,Humidity,Sea Level PressureIn,VisibilityMPH,Wind Direction,Wind SpeedMPH,Gust SpeedMPH,PrecipitationIn,Events,Conditions,WindDirDegrees,DateUTC
12:15 AM,50.4,46.8,87,30.12,10.0,Calm,Calm,-,N/A,,Clear,0,2013-06-19 05:15:00
12:35 AM,49.3,46.8,91,30.12,7.0,Calm,Calm,-,N/A,,Clear,0,2013-06-19 05:35:00
12:55 AM,49.1,46.9,92,30.13,10.0,Calm,Calm,-,N/A,,Clear,0,2013-06-19 05:55:00
1:15 AM,48.4,46.2,92,30.13,7.0,Calm,Calm,-,N/A,,Clear,0,2013-06-19 06:15:00
1:35 AM,49.1,47.3,93,30.14,7.0,Calm,Calm,-,N/A,,Clear,0,2013-06-19 06:35:00
1:55 AM,48.4,46.6,93,30.14,7.0,Calm,Calm,-,N/A,,Clear,0,2013-06-19 06:55:00
2:15 AM,48.9,47.3,94,30.13,7.0,Calm,Calm,-,N/A,,Clear,0,2013-06-19 07:15:00
2:35 AM,47.7,46.0,94,30.12,10.0,Calm,Calm,-,N/A,,Clear,0,2013-06-19 07:35:00
2:55 AM,47.7,45.9,93,30.13,10.0,Calm,Calm,-,N/A,,Clear,0,2013-06-19 07:55:00
3:15 AM,47.1,45.3,93,30.14,7.0,Calm,Calm,-,N/A,,Clear,0,2013-06-19 08:15:00
3:35 AM,45.9,44.2,94,30.14,5.0,Calm,Calm,-,N/A,,Clear,0,2013-06-19 08:35:00
3:55 AM,47.1,45.7,95,30.15,7.0,Calm,Calm,-,N/A,,Clear,0,2013-06-19 08:55:00
4:15 AM,46.9,45.3,94,30.15,10.0,Calm,Calm,-,N/A,,Clear,0,2013-06-19 09:15:00
4:35 AM,45.3,43.7,94,30.14,7.0,Calm,Calm,-,N/A,,Clear,0,2013-06-19 09:35:00
4:55 AM,46.0,44.4,94,30.14,5.0,Calm,Calm,-,N/A,,Clear,0,2013-06-19 09:55:00
5:15 AM,46.2,44.8,95,30.15,10.0,Calm,Calm,-,N/A,,Clear,0,2013-06-19 10:15:00
5:35 AM,45.3,43.7,94,30.14,10.0,Calm,Calm,-,N/A,,Clear,0,2013-06-19 10:35:00
5:55 AM,45.9,44.4,95,30.14,10.0,Calm,Calm,-,N/A,,Clear,0,2013-06-19 10:55:00
6:15 AM,47.7,46.0,94,30.15,10.0,East,3.5,-,N/A,,Clear,100,2013-06-19 11:15:00
6:35 AM,51.3,50.0,95,30.14,7.0,ESE,3.5,-,N/A,,Clear,120,2013-06-19 11:35:00
6:55 AM,52.9,49.6,89,30.14,10.0,Calm,Calm,-,N/A,,Clear,0,2013-06-19 11:55:00
7:15 AM,55.9,49.5,79,30.16,10.0,Calm,Calm,-,N/A,,Clear,0,2013-06-19 12:15:00
7:35 AM,57.7,50.7,77,30.16,10.0,Calm,Calm,-,N/A,,Clear,0,2013-06-19 12:35:00
7:55 AM,58.3,49.5,72,30.16,10.0,Calm,Calm,-,N/A,,Clear,0,2013-06-19 12:55:00
8:15 AM,59.9,49.6,69,30.16,10.0,Calm,Calm,-,N/A,,Clear,0,2013-06-19 13:15:00
8:35 AM,60.8,48.7,64,30.16,10.0,NE,3.5,-,N/A,,Clear,50,2013-06-19 13:35:00
8:55 AM,62.2,49.3,63,30.16,10.0,Calm,Calm,-,N/A,,Clear,0,2013-06-19 13:55:00
9:15 AM,63.5,49.3,60,30.16,10.0,East,3.5,-,N/A,,Clear,80,2013-06-19 14:15:00
9:35 AM,64.6,49.6,58,30.16,10.0,NE,3.5,-,N/A,,Clear,40,2013-06-19 14:35:00
9:55 AM,65.8,50.2,57,30.16,10.0,NNE,3.5,-,N/A,,Clear,30,2013-06-19 14:55:00
10:15 AM,67.1,47.7,50,30.15,10.0,Calm,Calm,-,N/A,,Clear,0,2013-06-19 15:15:00
10:35 AM,68.2,45.3,44,30.15,10.0,SSE,3.5,-,N/A,,Clear,150,2013-06-19 15:35:00
10:55 AM,68.5,42.1,38,30.15,7.0,SSW,3.5,-,N/A,,Clear,200,2013-06-19 15:55:00
11:15 AM,69.3,44.2,40,30.15,7.0,West,4.6,-,N/A,,Clear,280,2013-06-19 16:15:00
11:35 AM,70.3,43.3,38,30.14,5.0,Calm,Calm,-,N/A,,Haze,0,2013-06-19 16:35:00
11:55 AM,70.5,41.0,34,30.14,7.0,WSW,3.5,-,N/A,,Clear,250,2013-06-19 16:55:00
12:15 PM,70.9,40.3,33,30.14,7.0,Calm,Calm,-,N/A,,Clear,0,2013-06-19 17:15:00
12:35 PM,72.1,44.2,37,30.13,10.0,SSE,3.5,-,N/A,,Clear,160,2013-06-19 17:35:00
12:55 PM,72.0,41.9,34,30.12,7.0,SSW,6.9,-,N/A,,Clear,200,2013-06-19 17:55:00
1:15 PM,72.0,41.5,33,30.12,7.0,Calm,Calm,-,N/A,,Clear,0,2013-06-19 18:15:00
1:35 PM,72.7,42.3,33,30.11,7.0,WNW,4.6,-,N/A,,Clear,290,2013-06-19 18:35:00
1:55 PM,73.6,42.8,33,30.11,7.0,SW,5.8,-,N/A,,Clear,230,2013-06-19 18:55:00
2:15 PM,73.9,42.4,32,30.11,10.0,SW,4.6,-,N/A,,Clear,230,2013-06-19 19:15:00
2:35 PM,73.8,41.4,31,30.10,7.0,SW,4.6,-,N/A,,Clear,230,2013-06-19 19:35:00
2:55 PM,75.2,43.5,32,30.09,5.0,SW,5.8,-,N/A,,Haze,230,2013-06-19 19:55:00
3:15 PM,75.7,43.5,32,30.09,7.0,West,4.6,-,N/A,,Clear,280,2013-06-19 20:15:00
3:35 PM,75.9,44.6,33,30.09,7.0,SW,3.5,-,N/A,,Clear,220,2013-06-19 20:35:00
3:55 PM,76.1,44.6,33,30.09,7.0,WSW,6.9,-,N/A,,Clear,250,2013-06-19 20:55:00
4:15 PM,76.3,45.0,33,30.09,7.0,West,3.5,-,N/A,,Clear,270,2013-06-19 21:15:00
4:35 PM,76.6,44.2,32,30.08,7.0,SW,5.8,-,N/A,,Clear,220,2013-06-19 21:35:00
4:55 PM,74.8,45.1,35,30.08,7.0,Calm,Calm,-,N/A,,Scattered Clouds,0,2013-06-19 21:55:00
5:15 PM,77.0,45.3,32,30.07,7.0,South,5.8,-,N/A,,Scattered Clouds,190,2013-06-19 22:15:00
5:35 PM,76.3,44.4,32,30.06,7.0,SSW,4.6,-,N/A,,Scattered Clouds,210,2013-06-19 22:35:00
5:55 PM,76.6,46.0,34,30.06,7.0,Calm,Calm,-,N/A,,Clear,0,2013-06-19 22:55:00
6:15 PM,76.1,45.7,34,30.06,5.0,SSW,5.8,-,N/A,,Haze,210,2013-06-19 23:15:00
6:35 PM,76.1,46.0,34,30.06,7.0,SW,4.6,-,N/A,,Scattered Clouds,220,2013-06-19 23:35:00
6:55 PM,75.6,46.8,36,30.07,7.0,South,4.6,-,N/A,,Clear,190,2013-06-19 23:55:00
7:15 PM,75.2,46.9,37,30.06,7.0,SW,3.5,-,N/A,,Clear,220,2013-06-20 00:15:00
7:55 PM,72.9,50.4,45,30.06,7.0,Calm,Calm,-,N/A,,Clear,0,2013-06-20 00:55:00
8:15 PM,72.5,50.5,46,30.06,7.0,Calm,Calm,-,N/A,,Clear,0,2013-06-20 01:15:00
8:35 PM,70.3,51.1,50,30.06,7.0,Calm,Calm,-,N/A,,Clear,0,2013-06-20 01:35:00
8:55 PM,68.9,52.0,55,30.07,7.0,Calm,Calm,-,N/A,,Clear,0,2013-06-20 01:55:00
9:15 PM,65.7,53.4,65,30.07,5.0,Calm,Calm,-,N/A,,Haze,0,2013-06-20 02:15:00
9:35 PM,66.0,53.1,63,30.08,7.0,Calm,Calm,-,N/A,,Clear,0,2013-06-20 02:35:00
9:55 PM,65.3,53.1,65,30.09,7.0,Calm,Calm,-,N/A,,Clear,0,2013-06-20 02:55:00
10:15 PM,66.4,52.0,60,30.09,10.0,South,3.5,-,N/A,,Clear,170,2013-06-20 03:15:00
10:55 PM,65.3,52.3,63,30.09,10.0,South,4.6,-,N/A,,Clear,170,2013-06-20 03:55:00
11:15 PM,64.4,52.2,64,30.09,10.0,South,4.6,-,N/A,,Clear,180,2013-06-20 04:15:00
11:35 PM,63.9,52.0,65,30.09,7.0,South,3.5,-,N/A,,Clear,180,2013-06-20 04:35:00
11:55 PM,63.1,51.8,66,30.09,10.0,Calm,Calm,-,N/A,,Clear,0,2013-06-20 04:55:00